Terminal Aerodrome Forecast
Issued by NWS Topeka, KS

Home | Current Version | Previous Version | Graphics & Text | Print | Product List | Glossary On
Versions: 1 2 3 4 5 6 7 8 9 10 11 12 13 14 15 16 17 18 19
000
FTUS43 KTOP 180900 AAA
TAFTOP
TAF AMD
KTOP 180906Z 1809/1906 10005KT P6SM SCT070
     FM181200 16007KT P6SM BKN120=

USA.gov is the U.S. government's official web portal to all federal, state and local government web resources and services.